Weather History for KHOE - November, 2012

Change the Weather History Date:

Sunday, November 11, 2012

  Actual Average Record
Temperature  
Mean Temperature 62 °F -  
Max Temperature 77 °F 71 °F 83 °F (1975)
Min Temperature 46 °F 45 °F 29 °F (1962)
Degree Days  
Heating Degree Days 4    
Growing Degree Days 12 (Base 50)    
Moisture  
Dew Point 56 °F    
Average Humidity 82    
Maximum Humidity 100    
Minimum Humidity 50    
Precipitation  
Precipitation 0.00 in - - ()
Sea Level Pressure  
Sea Level Pressure 30.33 in    
Wind  
Wind Speed 3 mph (ESE)    
Max Wind Speed 10 mph    
Max Gust Speed 16 mph    
Visibility 10 miles    
Events      
Averages and records for this station are not official NWS values.
T = Trace of Precipitation, MM = Missing Value Source: NWS Daily Summary

Daily Weather History Graph

Daily Weather History Graph

Search for Another Location

Airport or City:

Trip Planner

Search our weather history database for the weather conditions in past years. The results will help you decide how hot, cold, wet, or windy it might be!

Date:

Astronomy

Nov. 11, 2012 Rise Set
Actual Time 6:55 AM EST 5:34 PM EST
Civil Twilight 6:29 AM EST 6:00 PM EST
Nautical Twilight 6:00 AM EST 6:29 PM EST
Astronomical Twilight 5:31 AM EST 6:58 PM EST
Moon 4:15 AM EST (11/11) 3:51 PM EST (11/11)
Length of Visible Light 11h 30m
Length of Day
10h 39m
Waning Crescent, 7% of the Moon is Illuminated
Nov 11
Waning Crescent
Nov 13
New
Nov 20
First Quarter
Nov 28
Full
Dec 6
Last Quarter

Hourly Weather History & Observations

Time (EST) Temp. Windchill Dew Point Humidity Pressure Visibility Wind Dir Wind Speed Gust Speed Precip Events Conditions
12:15 AM 46.4 °F - 46.4 °F 100% 30.34 in 10.0 mi Calm Calm - N/A   Clear
12:35 AM 46.4 °F 45.2 °F 46.4 °F 100% 30.34 in 10.0 mi East 3.5 mph - N/A   Clear
12:55 AM 46.4 °F 45.2 °F 46.4 °F 100% 30.34 in 10.0 mi East 3.5 mph - N/A   Clear
1:15 AM 48.2 °F - 48.2 °F 100% 30.33 in 10.0 mi Calm Calm - N/A   Clear
1:35 AM 48.2 °F - 46.4 °F 93% 30.33 in 10.0 mi Calm Calm - N/A   Clear
1:55 AM 48.2 °F - 48.2 °F 100% 30.32 in 10.0 mi Calm Calm - N/A   Clear
2:15 AM 48.2 °F - 48.2 °F 100% 30.32 in 10.0 mi Calm Calm - N/A   Clear
2:35 AM 48.2 °F - 48.2 °F 100% 30.32 in 10.0 mi East 3.5 mph - N/A   Scattered Clouds
2:55 AM 50.0 °F - 50.0 °F 100% 30.32 in 10.0 mi Calm Calm - N/A   Mostly Cloudy
3:15 AM 50.0 °F - 50.0 °F 100% 30.32 in 10.0 mi Calm Calm - N/A   Scattered Clouds
3:35 AM 50.0 °F - 50.0 °F 100% 30.32 in 10.0 mi Calm Calm - N/A   Scattered Clouds
3:55 AM 50.0 °F - 50.0 °F 100% 30.32 in 10.0 mi Calm Calm - N/A   Overcast
4:15 AM 50.0 °F - 50.0 °F 100% 30.32 in 10.0 mi Calm Calm - N/A   Overcast
4:35 AM 51.8 °F - 51.8 °F 100% 30.32 in 7.0 mi East 3.5 mph - N/A   Overcast
4:55 AM 53.6 °F - 53.6 °F 100% 30.33 in 7.0 mi Calm Calm - N/A   Overcast
5:15 AM 53.6 °F - 53.6 °F 100% 30.33 in 7.0 mi East 3.5 mph - N/A   Overcast
5:35 AM 53.6 °F - 53.6 °F 100% 30.33 in 10.0 mi East 3.5 mph - N/A   Overcast
5:55 AM 53.6 °F - 53.6 °F 100% 30.33 in 7.0 mi East 3.5 mph - N/A   Mostly Cloudy
6:15 AM 53.6 °F - 53.6 °F 100% 30.34 in 5.0 mi Calm Calm - N/A   Scattered Clouds
6:35 AM 51.8 °F - 51.8 °F 100% 30.34 in 4.0 mi Calm Calm - N/A   Scattered Clouds
6:55 AM 51.8 °F - 51.8 °F 100% 30.35 in 5.0 mi Calm Calm - N/A   Mostly Cloudy
7:15 AM 53.6 °F - 53.6 °F 100% 30.35 in 5.0 mi Calm Calm - N/A   Overcast
7:35 AM 53.6 °F - 53.6 °F 100% 30.36 in 7.0 mi Calm Calm - N/A   Overcast
7:55 AM 55.4 °F - 55.4 °F 100% 30.36 in 10.0 mi Calm Calm - N/A   Overcast
8:15 AM 59.0 °F - 57.2 °F 94% 30.36 in 10.0 mi Calm Calm - N/A   Overcast
8:35 AM 60.8 °F - 59.0 °F 94% 30.36 in 10.0 mi East 3.5 mph - N/A   Scattered Clouds
8:55 AM 64.4 °F - 59.0 °F 83% 30.37 in 10.0 mi East 4.6 mph - N/A   Clear
9:15 AM 66.2 °F - 59.0 °F 78% 30.38 in 10.0 mi East 5.8 mph - N/A   Clear
9:55 AM 69.8 °F - 57.2 °F 64% 30.39 in 10.0 mi ESE 8.1 mph - N/A   Scattered Clouds
10:35 AM 73.4 °F - 59.0 °F 61% 30.39 in 10.0 mi East 6.9 mph - N/A   Scattered Clouds
10:55 AM 75.2 °F - 59.0 °F 57% 30.38 in 10.0 mi East 5.8 mph - N/A   Clear
11:15 AM 73.4 °F - 59.0 °F 61% 30.38 in 10.0 mi East 8.1 mph - N/A   Mostly Cloudy
11:35 AM 73.4 °F - 57.2 °F 57% 30.38 in 10.0 mi ESE 8.1 mph - N/A   Overcast
11:55 AM 75.2 °F - 59.0 °F 57% 30.36 in 10.0 mi ESE 5.8 mph - N/A   Overcast
12:15 PM 75.2 °F - 59.0 °F 57% 30.35 in 10.0 mi East 6.9 mph - N/A   Mostly Cloudy
12:35 PM 77.0 °F - 57.2 °F 50% 30.34 in 10.0 mi SE 8.1 mph - N/A   Scattered Clouds
12:55 PM 77.0 °F - 57.2 °F 50% 30.34 in 10.0 mi SE 6.9 mph - N/A   Scattered Clouds
1:15 PM 77.0 °F - 57.2 °F 50% 30.33 in 10.0 mi ESE 9.2 mph - N/A   Mostly Cloudy
1:35 PM 77.0 °F - 59.0 °F 54% 30.32 in 10.0 mi SE 5.8 mph - N/A   Mostly Cloudy
1:55 PM 77.0 °F - 59.0 °F 54% 30.32 in 10.0 mi ESE 5.8 mph - N/A   Mostly Cloudy
2:15 PM 77.0 °F - 59.0 °F 54% 30.31 in 10.0 mi East 8.1 mph - N/A   Overcast
2:35 PM 77.0 °F - 59.0 °F 54% 30.31 in 10.0 mi East 10.4 mph 16.1 mph N/A   Mostly Cloudy
3:15 PM 75.2 °F - 59.0 °F 57% 30.30 in 10.0 mi East 9.2 mph - N/A   Scattered Clouds
3:35 PM 77.0 °F - 59.0 °F 54% 30.30 in 10.0 mi ESE 10.4 mph - N/A   Scattered Clouds
3:55 PM 77.0 °F - 59.0 °F 54% 30.30 in 10.0 mi East 9.2 mph - N/A   Mostly Cloudy
4:15 PM 73.4 °F - 60.8 °F 65% 30.30 in 10.0 mi ESE 4.6 mph - N/A   Scattered Clouds
4:35 PM 73.4 °F - 60.8 °F 65% 30.30 in 10.0 mi ESE 3.5 mph - N/A   Scattered Clouds
4:55 PM 73.4 °F - 59.0 °F 61% 30.30 in 10.0 mi ESE 4.6 mph - N/A   Clear
5:15 PM 71.6 °F - 59.0 °F 64% 30.30 in 10.0 mi East 4.6 mph - N/A   Clear
5:35 PM 69.8 °F - 59.0 °F 68% 30.30 in 10.0 mi ESE 3.5 mph - N/A   Clear
5:55 PM 68.0 °F - 59.0 °F 73% 30.30 in 10.0 mi ESE 4.6 mph - N/A   Clear
6:15 PM 68.0 °F - 59.0 °F 73% 30.31 in 10.0 mi ESE 5.8 mph - N/A   Clear
6:35 PM 68.0 °F - 59.0 °F 73% 30.31 in 10.0 mi East 4.6 mph - N/A   Clear
6:55 PM 66.2 °F - 59.0 °F 78% 30.31 in 10.0 mi East 4.6 mph - N/A   Clear
7:15 PM 64.4 °F - 59.0 °F 83% 30.32 in 10.0 mi East 3.5 mph - N/A   Clear
7:35 PM 62.6 °F - 59.0 °F 88% 30.32 in 10.0 mi ESE 4.6 mph - N/A   Clear
7:55 PM 62.6 °F - 59.0 °F 88% 30.31 in 10.0 mi East 3.5 mph - N/A   Clear
8:15 PM 62.6 °F - 59.0 °F 88% 30.31 in 10.0 mi ESE 4.6 mph - N/A   Clear
8:35 PM 62.6 °F - 59.0 °F 88% 30.32 in 10.0 mi East 5.8 mph - N/A   Clear
8:55 PM 62.6 °F - 59.0 °F 88% 30.31 in 10.0 mi East 4.6 mph - N/A   Clear
9:15 PM 62.6 °F - 59.0 °F 88% 30.31 in 10.0 mi East 5.8 mph - N/A   Clear
9:35 PM 62.6 °F - 59.0 °F 88% 30.31 in 10.0 mi East 6.9 mph - N/A   Clear
9:55 PM 62.6 °F - 59.0 °F 88% 30.31 in 10.0 mi East 4.6 mph - N/A   Clear
10:15 PM 62.6 °F - 59.0 °F 88% 30.31 in 10.0 mi East 4.6 mph - N/A   Clear
10:35 PM 62.6 °F - 59.0 °F 88% 30.31 in 10.0 mi East 3.5 mph - N/A   Clear
10:55 PM 60.8 °F - 59.0 °F 94% 30.31 in 10.0 mi East 5.8 mph - N/A   Clear
11:15 PM 60.8 °F - 59.0 °F 94% 30.31 in 10.0 mi East 4.6 mph - N/A   Clear
11:35 PM 59.0 °F - 59.0 °F 100% 30.31 in 10.0 mi Calm Calm - N/A   Clear
11:55 PM 59.0 °F - 59.0 °F 100% 30.31 in 10.0 mi Calm Calm - N/A   Clear